Location: Recife
(8.0585°S, 34.8848°W)
Time: 09:47:09
(UTC-03:00)

Courier 1B Rocket - Pass Details

Date: 19 April 2026
Orbit: 920 x 1201 km, 28.2° (Epoch: 13 May)

Event Time Altitude Azimuth Distance (km) Brightness Sun altitude
Rises 12:04:03 0° 237° (WSW) 3,957 8.2 67.6°
Reaches altitude 10° 12:06:49 10° 235° (SW) 3,031 7.7 67.2°
Maximum altitude 12:14:21 69° 152° (SSE) 1,255 6.5 66.2°
Drops below altitude 10° 12:22:09 10° 70° (ENE) 3,126 7.7 65.0°
Sets 12:25:02 0° 67° (ENE) 4,087 8.2 64.5°
